Weather in Amberg

Germany     49°26′32″N   11°51′20″E
В апреле 2022 года жителям России запретили посещать сайт meteo.paraplan.net по решению Генеральной прокуратуры. Аудитория сайта уменьшилась в 10 раз. Владельцы сайта не видят смысла в поддержке погодного сервера в таких условиях. Сайт будет закрыт в октябре.
temp.,
°C
wind,
m/s
gust,
m/s
humid.,
%
clouds,
%
prec.,
mm/h
press.,
hPa
HPBL,
m
3 october, mon
mon323:00+10wnw489295 0.0 1022566
02:00+8w399831 0.0 1024284
05:00+7w289974 0.0 1025248
08:00+8wnw389698 0.0 1026338
11:00+10wnw478352 0.1 1027787
14:00+12wnw4664100 0.2 10261316
17:00+11wnw2669100 0.0 1025472
20:00+10w1175100 0.0 102630
4 october, tue
tue423:00+9w117871 0.0 102613
02:00+7w118499 0.0 102510
05:00+6w118889 0.0 102410
08:00+6ssw008749 0.0 102410
11:00+12s1263100 0.0 1024432
14:00+14s2256100 0.0 1023769
17:00+15s22595 0.0 1022669
20:00+9s11843 0.0 102310
5 october, wed
wed523:00+8s2289100 0.0 102413
02:00+7s2291100 0.0 102422
05:00+8sse2389100 0.0 102355
08:00+7sse2390100 0.0 102365
11:00+14s2463100 0.0 1022383
14:00+18ssw3550100 0.0 1020675
17:00+17ssw3664100 0.0 1020399
20:00+12ssw2285100 0.0 102225
6 october, thu
thu623:00+12sw1193100 0.0 102314
02:00+11sw229496 0.0 102538
05:00+11wsw21092100 0.0 1026248
08:00+10w399613 0.0 1028276
11:00+14nw357765 0.0 1030650
14:00+17wnw345114 0.0 10301205
17:00+16nw22535 0.0 1030644
20:00+10nnw11735 0.0 103110
7 october, fri
fri723:00+8nne11753 0.0 103210
02:00+7nne11780 0.0 103010
05:00+7ne118290 0.0 102910
08:00+7e118576 0.0 102810
11:00+14sse126756 0.0 1026353
14:00+18ssw236217 0.0 1024939
17:00+18ssw226728 0.0 1022705
20:00+12sw119126 0.0 102210